sat.trackr.live / text

‹ back to catalog

COSMOS 2596 (708K)

NORAD 65590 · 2025-206B

PAYLOAD ACTIVE UNKNOWN

§ Identity

Operator
Country
CIS
Launch date
2025-09-13
Launch site
PLMSC
Launch vehicle
Mass (kg)
RCS (m²)

Purposes: nav

External: N2YO · Heavens-Above · Gunter

§ Orbital elements

Epoch: 2026-09-14T04:12:59.260032Z

Period
675.74 min
Inclination
64.5776°
Eccentricity
0.0012346
Mean motion
2.13100925 rev/d
Perigee alt
19,098.5 km
Apogee alt
19,161.5 km
Semi-major
25,508.1 km
B*
0.0000e+0
RAAN
311.8831°
Arg perigee
302.0561°
Mean anomaly
78.6627°
Rev number
781

§ Raw data

COSMOS 2596 (708K)1 65590U 25206B   26257.17568588 -.00000054  00000+0  00000+0 0  99982 65590  64.5776 311.8831 0012346 302.0561  78.6627  2.13100925  7815

JSON: /api/v1/satellites/65590 · /tle

For live sub-satellite position, see the globe view (requires WebGL).

§ Visibility from observer

Set your observer location to see the next 7 days of passes ≥ 10°. The values pass through the URL so the page stays shareable.

No JS? Fill the form by hand. The geolocation button needs JavaScript.